Time,TemperatureF,DewpointF,PressureIn,WindDirection,WindDirectionDegrees,WindSpeedMPH,WindSpeedGustMPH,Humidity,HourlyPrecipIn,Conditions,Clouds,dailyrainin,SoftwareType,DateUTC
2013-02-17 00:02:00,16.0,7.0,-100.00,East,80,4.0,6.0,66,-99.99,,,-99.99,,2013-02-17 06:02:00,
2013-02-17 00:11:00,16.0,6.0,-100.00,ENE,75,4.0,6.0,65,-99.99,,,-99.99,,2013-02-17 06:11:00,
2013-02-17 00:21:00,16.0,6.0,-100.00,ENE,65,4.0,6.0,65,-99.99,,,-99.99,,2013-02-17 06:21:00,
2013-02-17 00:31:00,16.0,6.0,-100.00,ENE,65,4.0,6.0,65,-99.99,,,-99.99,,2013-02-17 06:31:00,
2013-02-17 00:41:00,15.0,5.0,-100.00,East,80,3.0,6.0,65,-99.99,,,-99.99,,2013-02-17 06:41:00,
2013-02-17 00:52:00,15.0,5.0,-100.00,ENE,75,5.0,6.0,65,-99.99,,,-99.99,,2013-02-17 06:52:00,
2013-02-17 01:01:00,15.0,5.0,-100.00,ENE,75,5.0,6.0,65,-99.99,,,-99.99,,2013-02-17 07:01:00,
2013-02-17 01:11:00,14.0,5.0,-100.00,ENE,75,2.0,5.0,65,-99.99,,,-99.99,,2013-02-17 07:11:00,
2013-02-17 01:21:00,14.0,5.0,-100.00,ENE,75,3.0,5.0,65,-99.99,,,-99.99,,2013-02-17 07:21:00,
2013-02-17 01:31:00,14.0,5.0,-100.00,ENE,75,3.0,5.0,65,-99.99,,,-99.99,,2013-02-17 07:31:00,
2013-02-17 01:41:00,14.0,4.0,-100.00,East,95,0.0,4.0,65,-99.99,,,-99.99,,2013-02-17 07:41:00,
2013-02-17 01:52:00,13.0,4.0,-100.00,SE,130,1.0,2.0,66,-99.99,,,-99.99,,2013-02-17 07:52:00,
2013-02-17 02:01:00,13.0,4.0,-100.00,SE,130,1.0,2.0,66,-99.99,,,-99.99,,2013-02-17 08:01:00,
2013-02-17 02:11:00,13.0,4.0,-100.00,ENE,65,1.0,4.0,67,-99.99,,,-99.99,,2013-02-17 08:11:00,
2013-02-17 02:21:00,13.0,4.0,-100.00,East,85,2.0,4.0,68,-99.99,,,-99.99,,2013-02-17 08:21:00,
2013-02-17 02:31:00,13.0,4.0,-100.00,East,85,2.0,4.0,68,-99.99,,,-99.99,,2013-02-17 08:31:00,
2013-02-17 02:42:00,13.0,4.0,-100.00,ESE,105,1.0,4.0,68,-99.99,,,-99.99,,2013-02-17 08:42:00,
2013-02-17 02:52:00,12.0,4.0,-100.00,NE,40,1.0,1.0,69,-99.99,,,-99.99,,2013-02-17 08:52:00,
2013-02-17 03:02:00,12.0,4.0,-100.00,NE,40,1.0,1.0,69,-99.99,,,-99.99,,2013-02-17 09:02:00,
2013-02-17 03:11:00,12.0,4.0,-100.00,NE,35,4.0,4.0,70,-99.99,,,-99.99,,2013-02-17 09:11:00,
2013-02-17 03:21:00,11.0,4.0,-100.00,NE,50,2.0,4.0,71,-99.99,,,-99.99,,2013-02-17 09:21:00,
2013-02-17 03:31:00,11.0,4.0,-100.00,NE,50,2.0,4.0,71,-99.99,,,-99.99,,2013-02-17 09:31:00,
2013-02-17 03:42:00,11.0,4.0,-100.00,NE,55,0.0,2.0,71,-99.99,,,-99.99,,2013-02-17 09:42:00,
2013-02-17 03:52:00,11.0,4.0,-100.00,SW,235,0.0,0.0,72,-99.99,,,-99.99,,2013-02-17 09:52:00,
2013-02-17 04:01:00,11.0,4.0,-100.00,SW,235,0.0,0.0,72,-99.99,,,-99.99,,2013-02-17 10:01:00,
2013-02-17 04:11:00,11.0,4.0,-100.00,SW,225,0.0,0.0,73,-99.99,,,-99.99,,2013-02-17 10:11:00,
2013-02-17 04:21:00,11.0,5.0,-100.00,SW,215,0.0,0.0,74,-99.99,,,-99.99,,2013-02-17 10:21:00,
2013-02-17 04:31:00,11.0,5.0,-100.00,SW,215,0.0,0.0,74,-99.99,,,-99.99,,2013-02-17 10:31:00,
2013-02-17 04:41:00,11.0,4.0,-100.00,SW,220,0.0,1.0,75,-99.99,,,-99.99,,2013-02-17 10:41:00,
2013-02-17 04:52:00,11.0,5.0,-100.00,WSW,255,0.0,1.0,76,-99.99,,,-99.99,,2013-02-17 10:52:00,
2013-02-17 05:01:00,11.0,5.0,-100.00,WSW,255,0.0,1.0,76,-99.99,,,-99.99,,2013-02-17 11:01:00,
2013-02-17 05:11:00,10.0,5.0,-100.00,WSW,250,2.0,4.0,77,-99.99,,,-99.99,,2013-02-17 11:11:00,
2013-02-17 05:21:00,10.0,5.0,-100.00,West,260,1.0,3.0,78,-99.99,,,-99.99,,2013-02-17 11:21:00,
2013-02-17 05:32:00,10.0,5.0,-100.00,West,260,1.0,3.0,78,-99.99,,,-99.99,,2013-02-17 11:32:00,
2013-02-17 05:42:00,10.0,5.0,-100.00,West,260,0.0,2.0,79,-99.99,,,-99.99,,2013-02-17 11:42:00,
2013-02-17 05:52:00,11.0,5.0,-100.00,West,270,0.0,0.0,79,-99.99,,,-99.99,,2013-02-17 11:52:00,
2013-02-17 06:03:00,11.0,5.0,-100.00,West,270,0.0,0.0,79,-99.99,,,-99.99,,2013-02-17 12:03:00,
2013-02-17 06:11:00,11.0,5.0,-100.00,NE,35,0.0,0.0,79,-99.99,,,-99.99,,2013-02-17 12:11:00,
2013-02-17 06:22:00,11.0,6.0,-100.00,WSW,240,0.0,0.0,80,-99.99,,,-99.99,,2013-02-17 12:22:00,
2013-02-17 06:32:00,11.0,6.0,-100.00,WSW,240,0.0,0.0,80,-99.99,,,-99.99,,2013-02-17 12:32:00,
2013-02-17 06:42:00,10.0,5.0,-100.00,SSW,195,0.0,0.0,80,-99.99,,,-99.99,,2013-02-17 12:42:00,
2013-02-17 06:52:00,10.0,6.0,-100.00,SSW,195,0.0,0.0,81,-99.99,,,-99.99,,2013-02-17 12:52:00,
2013-02-17 07:02:00,10.0,6.0,-100.00,SSW,195,0.0,0.0,81,-99.99,,,-99.99,,2013-02-17 13:02:00,
2013-02-17 07:12:00,10.0,6.0,-100.00,NE,55,1.0,2.0,82,-99.99,,,-99.99,,2013-02-17 13:12:00,
2013-02-17 07:22:00,10.0,5.0,-100.00,ENE,75,0.0,1.0,82,-99.99,,,-99.99,,2013-02-17 13:22:00,
2013-02-17 07:32:00,10.0,5.0,-100.00,ENE,75,0.0,1.0,82,-99.99,,,-99.99,,2013-02-17 13:32:00,
2013-02-17 07:41:00,10.0,5.0,-100.00,ENE,75,0.0,1.0,82,-99.99,,,-99.99,,2013-02-17 13:41:00,
2013-02-17 07:52:00,11.0,7.0,-100.00,ESE,115,0.0,0.0,84,-99.99,,,-99.99,,2013-02-17 13:52:00,
2013-02-17 08:01:00,11.0,7.0,-100.00,ESE,115,0.0,0.0,84,-99.99,,,-99.99,,2013-02-17 14:01:00,
2013-02-17 08:11:00,13.0,10.0,-100.00,SE,140,1.0,2.0,85,-99.99,,,-99.99,,2013-02-17 14:11:00,
2013-02-17 08:21:00,15.0,11.0,-100.00,South,175,2.0,4.0,85,-99.99,,,-99.99,,2013-02-17 14:21:00,
2013-02-17 08:32:00,15.0,11.0,-100.00,South,175,2.0,4.0,85,-99.99,,,-99.99,,2013-02-17 14:32:00,
2013-02-17 08:42:00,17.0,13.0,-100.00,SE,145,1.0,4.0,84,-99.99,,,-99.99,,2013-02-17 14:42:00,
2013-02-17 08:53:00,18.0,14.0,-100.00,SE,125,2.0,5.0,82,-99.99,,,-99.99,,2013-02-17 14:53:00,
2013-02-17 09:02:00,18.0,14.0,-100.00,SE,125,2.0,5.0,82,-99.99,,,-99.99,,2013-02-17 15:02:00,
2013-02-17 09:11:00,19.0,13.0,-100.00,SSE,150,4.0,7.0,77,-99.99,,,-99.99,,2013-02-17 15:11:00,
2013-02-17 09:21:00,20.0,12.0,-100.00,South,185,4.0,7.0,71,-99.99,,,-99.99,,2013-02-17 15:21:00,
2013-02-17 09:32:00,20.0,12.0,-100.00,South,185,4.0,7.0,71,-99.99,,,-99.99,,2013-02-17 15:32:00,
2013-02-17 09:42:00,20.0,10.0,-100.00,SE,135,5.0,10.0,64,-99.99,,,-99.99,,2013-02-17 15:42:00,
2013-02-17 09:52:00,21.0,9.0,-100.00,SSE,155,6.0,9.0,59,-99.99,,,-99.99,,2013-02-17 15:52:00,
2013-02-17 10:01:00,21.0,9.0,-100.00,SSE,155,6.0,9.0,59,-99.99,,,-99.99,,2013-02-17 16:01:00,
2013-02-17 10:11:00,22.0,8.0,-100.00,South,170,5.0,9.0,54,-99.99,,,-99.99,,2013-02-17 16:11:00,
2013-02-17 10:21:00,23.0,8.0,-100.00,SE,125,7.0,9.0,52,-99.99,,,-99.99,,2013-02-17 16:21:00,
2013-02-17 10:32:00,23.0,8.0,-100.00,SE,125,7.0,9.0,52,-99.99,,,-99.99,,2013-02-17 16:32:00,
2013-02-17 10:42:00,24.0,8.0,-100.00,SSE,165,6.0,10.0,50,-99.99,,,-99.99,,2013-02-17 16:42:00,
2013-02-17 10:52:00,25.0,8.0,-100.00,SE,135,6.0,10.0,49,-99.99,,,-99.99,,2013-02-17 16:52:00,
2013-02-17 11:02:00,25.0,8.0,-100.00,SE,135,6.0,10.0,49,-99.99,,,-99.99,,2013-02-17 17:02:00,
2013-02-17 11:11:00,26.0,9.0,-100.00,SSW,205,6.0,9.0,48,-99.99,,,-99.99,,2013-02-17 17:11:00,
2013-02-17 11:21:00,26.0,9.0,-100.00,South,180,4.0,10.0,47,-99.99,,,-99.99,,2013-02-17 17:21:00,
2013-02-17 11:32:00,26.0,9.0,-100.00,South,180,4.0,10.0,47,-99.99,,,-99.99,,2013-02-17 17:32:00,
2013-02-17 11:42:00,27.0,9.0,-100.00,SSW,210,6.0,13.0,47,-99.99,,,-99.99,,2013-02-17 17:42:00,
2013-02-17 11:52:00,28.0,10.0,-100.00,South,170,5.0,10.0,46,-99.99,,,-99.99,,2013-02-17 17:52:00,
2013-02-17 12:02:00,28.0,10.0,-100.00,South,170,5.0,10.0,46,-99.99,,,-99.99,,2013-02-17 18:02:00,
2013-02-17 12:11:00,29.0,11.0,-100.00,SW,225,8.0,12.0,46,-99.99,,,-99.99,,2013-02-17 18:11:00,
2013-02-17 12:22:00,31.0,12.0,-100.00,SW,220,5.0,12.0,46,-99.99,,,-99.99,,2013-02-17 18:22:00,
2013-02-17 12:33:00,31.0,12.0,-100.00,SW,220,5.0,12.0,46,-99.99,,,-99.99,,2013-02-17 18:33:00,
2013-02-17 12:42:00,29.0,10.0,-100.00,ESE,115,4.0,11.0,45,-99.99,,,-99.99,,2013-02-17 18:42:00,
2013-02-17 12:52:00,30.0,11.0,-100.00,SSE,160,7.0,14.0,45,-99.99,,,-99.99,,2013-02-17 18:52:00,
2013-02-17 13:01:00,30.0,11.0,-100.00,SSE,160,7.0,14.0,45,-99.99,,,-99.99,,2013-02-17 19:01:00,
2013-02-17 13:11:00,31.0,12.0,-100.00,ESE,110,6.0,14.0,45,-99.99,,,-99.99,,2013-02-17 19:11:00,
2013-02-17 13:21:00,31.0,13.0,-100.00,SE,130,10.0,14.0,45,-99.99,,,-99.99,,2013-02-17 19:21:00,
2013-02-17 13:32:00,31.0,13.0,-100.00,SE,130,10.0,14.0,45,-99.99,,,-99.99,,2013-02-17 19:32:00,
2013-02-17 13:42:00,31.0,12.0,-100.00,South,185,8.0,17.0,45,-99.99,,,-99.99,,2013-02-17 19:42:00,
2013-02-17 13:52:00,31.0,13.0,-100.00,SE,135,9.0,17.0,46,-99.99,,,-99.99,,2013-02-17 19:52:00,
2013-02-17 14:02:00,31.0,13.0,-100.00,SE,135,9.0,17.0,46,-99.99,,,-99.99,,2013-02-17 20:02:00,
2013-02-17 14:11:00,33.0,14.0,-100.00,SSE,150,8.0,14.0,46,-99.99,,,-99.99,,2013-02-17 20:11:00,
2013-02-17 14:21:00,33.0,15.0,-100.00,SSE,150,9.0,14.0,46,-99.99,,,-99.99,,2013-02-17 20:21:00,
2013-02-17 14:32:00,33.0,15.0,-100.00,SSE,150,9.0,14.0,46,-99.99,,,-99.99,,2013-02-17 20:32:00,
2013-02-17 14:42:00,34.0,15.0,-100.00,SE,135,9.0,13.0,46,-99.99,,,-99.99,,2013-02-17 20:42:00,
2013-02-17 14:52:00,34.0,15.0,-100.00,SSE,160,6.0,10.0,46,-99.99,,,-99.99,,2013-02-17 20:52:00,
2013-02-17 15:02:00,34.0,15.0,-100.00,SSE,160,6.0,10.0,46,-99.99,,,-99.99,,2013-02-17 21:02:00,
2013-02-17 15:11:00,34.0,16.0,-100.00,SE,125,7.0,14.0,46,-99.99,,,-99.99,,2013-02-17 21:11:00,
2013-02-17 15:21:00,34.0,16.0,-100.00,South,175,6.0,14.0,47,-99.99,,,-99.99,,2013-02-17 21:21:00,
2013-02-17 15:32:00,34.0,16.0,-100.00,South,175,6.0,14.0,47,-99.99,,,-99.99,,2013-02-17 21:32:00,
2013-02-17 15:42:00,34.0,16.0,-100.00,South,175,6.0,16.0,47,-99.99,,,-99.99,,2013-02-17 21:42:00,
2013-02-17 15:53:00,34.0,17.0,-100.00,South,175,9.0,17.0,48,-99.99,,,-99.99,,2013-02-17 21:53:00,
2013-02-17 16:01:00,34.0,17.0,-100.00,South,175,9.0,17.0,48,-99.99,,,-99.99,,2013-02-17 22:01:00,
2013-02-17 16:12:00,34.0,17.0,-100.00,SE,130,9.0,16.0,48,-99.99,,,-99.99,,2013-02-17 22:12:00,
2013-02-17 16:22:00,34.0,17.0,-100.00,SSE,155,9.0,17.0,49,-99.99,,,-99.99,,2013-02-17 22:22:00,
2013-02-17 16:32:00,34.0,17.0,-100.00,SSE,155,9.0,17.0,49,-99.99,,,-99.99,,2013-02-17 22:32:00,
2013-02-17 16:42:00,34.0,17.0,-100.00,SSE,150,8.0,14.0,49,-99.99,,,-99.99,,2013-02-17 22:42:00,
2013-02-17 16:52:00,35.0,18.0,-100.00,SE,145,8.0,13.0,50,-99.99,,,-99.99,,2013-02-17 22:52:00,
2013-02-17 17:02:00,35.0,18.0,-100.00,SE,145,8.0,13.0,50,-99.99,,,-99.99,,2013-02-17 23:02:00,
2013-02-17 17:11:00,34.0,17.0,-100.00,SSE,160,10.0,17.0,50,-99.99,,,-99.99,,2013-02-17 23:11:00,
2013-02-17 17:21:00,34.0,18.0,-100.00,SSE,160,8.0,17.0,51,-99.99,,,-99.99,,2013-02-17 23:21:00,
2013-02-17 17:32:00,34.0,18.0,-100.00,SSE,160,8.0,17.0,51,-99.99,,,-99.99,,2013-02-17 23:32:00,
2013-02-17 17:42:00,34.0,18.0,-100.00,South,170,11.0,16.0,51,-99.99,,,-99.99,,2013-02-17 23:42:00,
2013-02-17 17:52:00,34.0,18.0,-100.00,South,170,6.0,14.0,52,-99.99,,,-99.99,,2013-02-17 23:52:00,
2013-02-17 18:01:00,34.0,18.0,-100.00,South,170,6.0,14.0,52,-99.99,,,-99.99,,2013-02-18 00:01:00,
2013-02-17 18:11:00,33.0,18.0,-100.00,SSE,165,0.0,0.0,53,-99.99,,,-99.99,,2013-02-18 00:11:00,
2013-02-17 18:22:00,33.0,18.0,-100.00,SSE,155,7.0,13.0,54,-99.99,,,-99.99,,2013-02-18 00:22:00,
2013-02-17 18:32:00,33.0,18.0,-100.00,SSE,155,7.0,13.0,54,-99.99,,,-99.99,,2013-02-18 00:32:00,
2013-02-17 18:41:00,33.0,18.0,-100.00,SE,140,6.0,16.0,55,-99.99,,,-99.99,,2013-02-18 00:41:00,
2013-02-17 18:52:00,33.0,19.0,-100.00,ESE,120,7.0,11.0,56,-99.99,,,-99.99,,2013-02-18 00:52:00,
2013-02-17 19:01:00,33.0,19.0,-100.00,ESE,120,7.0,11.0,56,-99.99,,,-99.99,,2013-02-18 01:01:00,
2013-02-17 19:12:00,32.0,19.0,-100.00,SSE,150,6.0,9.0,58,-99.99,,,-99.99,,2013-02-18 01:12:00,
2013-02-17 19:21:00,32.0,19.0,-100.00,SE,130,5.0,11.0,59,-99.99,,,-99.99,,2013-02-18 01:21:00,
2013-02-17 19:32:00,32.0,19.0,-100.00,SE,130,5.0,11.0,59,-99.99,,,-99.99,,2013-02-18 01:32:00,
2013-02-17 19:41:00,32.0,19.0,-100.00,SE,130,5.0,11.0,59,-99.99,,,-99.99,,2013-02-18 01:41:00,
2013-02-17 19:52:00,32.0,20.0,-100.00,SE,130,5.0,14.0,61,-99.99,,,-99.99,,2013-02-18 01:52:00,
2013-02-17 20:01:00,32.0,20.0,-100.00,SE,130,5.0,14.0,61,-99.99,,,-99.99,,2013-02-18 02:01:00,
2013-02-17 20:11:00,31.0,20.0,-100.00,SE,140,4.0,14.0,62,-99.99,,,-99.99,,2013-02-18 02:11:00,
2013-02-17 20:21:00,31.0,20.0,-100.00,SE,145,7.0,11.0,63,-99.99,,,-99.99,,2013-02-18 02:21:00,
2013-02-17 20:32:00,31.0,20.0,-100.00,SE,145,7.0,11.0,63,-99.99,,,-99.99,,2013-02-18 02:32:00,
2013-02-17 20:41:00,32.0,21.0,-100.00,SSE,155,7.0,18.0,63,-99.99,,,-99.99,,2013-02-18 02:41:00,
2013-02-17 20:52:00,32.0,20.0,-100.00,SE,145,10.0,18.0,62,-99.99,,,-99.99,,2013-02-18 02:52:00,
2013-02-17 21:01:00,32.0,20.0,-100.00,SE,145,10.0,18.0,62,-99.99,,,-99.99,,2013-02-18 03:01:00,
2013-02-17 21:11:00,32.0,20.0,-100.00,SE,145,11.0,21.0,62,-99.99,,,-99.99,,2013-02-18 03:11:00,
2013-02-17 21:21:00,32.0,21.0,-100.00,South,175,9.0,19.0,63,-99.99,,,-99.99,,2013-02-18 03:21:00,
2013-02-17 21:32:00,32.0,21.0,-100.00,South,175,9.0,19.0,63,-99.99,,,-99.99,,2013-02-18 03:32:00,
2013-02-17 21:42:00,32.0,21.0,-100.00,South,175,9.0,19.0,63,-99.99,,,-99.99,,2013-02-18 03:42:00,
2013-02-17 21:52:00,32.0,21.0,-100.00,South,185,9.0,19.0,64,-99.99,,,-99.99,,2013-02-18 03:52:00,
2013-02-17 22:01:00,32.0,21.0,-100.00,South,185,9.0,19.0,64,-99.99,,,-99.99,,2013-02-18 04:01:00,
2013-02-17 22:11:00,31.0,21.0,-100.00,SSE,160,11.0,19.0,65,-99.99,,,-99.99,,2013-02-18 04:11:00,
2013-02-17 22:21:00,31.0,21.0,-100.00,SE,140,12.0,29.0,65,-99.99,,,-99.99,,2013-02-18 04:21:00,
2013-02-17 22:32:00,31.0,21.0,-100.00,SE,140,12.0,29.0,65,-99.99,,,-99.99,,2013-02-18 04:32:00,
2013-02-17 22:42:00,31.0,21.0,-100.00,SE,140,11.0,21.0,65,-99.99,,,-99.99,,2013-02-18 04:42:00,
2013-02-17 22:52:00,31.0,21.0,-100.00,SSE,155,10.0,17.0,66,-99.99,,,-99.99,,2013-02-18 04:52:00,
2013-02-17 23:02:00,31.0,21.0,-100.00,SSE,155,10.0,17.0,66,-99.99,,,-99.99,,2013-02-18 05:02:00,
2013-02-17 23:11:00,31.0,21.0,-100.00,SE,145,14.0,23.0,66,-99.99,,,-99.99,,2013-02-18 05:11:00,
2013-02-17 23:21:00,31.0,21.0,-100.00,SE,145,11.0,24.0,65,-99.99,,,-99.99,,2013-02-18 05:21:00,
2013-02-17 23:31:00,31.0,21.0,-100.00,SE,145,11.0,24.0,65,-99.99,,,-99.99,,2013-02-18 05:31:00,
2013-02-17 23:41:00,31.0,21.0,-100.00,SE,135,9.0,21.0,65,-99.99,,,-99.99,,2013-02-18 05:41:00,
2013-02-17 23:52:00,31.0,21.0,-100.00,SSE,165,13.0,21.0,65,-99.99,,,-99.99,,2013-02-18 05:52:00,